Location: Hilton Head Island
(32.2163°N, 80.7526°W)
Time: 15:23:08
(UTC-04:00)

Vanguard 1 - Pass Details

Date: 18 February 2026
Orbit: 653 x 3818 km, 34.2° (Epoch: 9 March)

Event Time Altitude Azimuth Distance (km) Brightness Sun altitude
Rises 21:40:59 0° 289° (WNW) 6,830 15.1 -44.6°
Reaches altitude 10° 21:45:09 10° 285° (WNW) 6,127 14.7 -45.4°
Maximum altitude 22:05:21 54° 216° (SW) 4,303 13.0 -49.4°
Enters shadow 22:09:22 51° 190° (S) 4,412 13.0 -50.2°
Drops below altitude 10° 22:26:31 10° 145° (SE) 6,332 - -53.5°
Sets 22:31:00 0° 140° (SE) 7,055 - -54.3°
